| time (UTC) | temp F | wind direction | speed knots | gust knots | rain 1hr in | rain 24hr in | rain mn in | humidity % | barometer mb |
| 20260506024502 | 59 | 163 | 1.7 | 6.1 | 0.00 | 0.00 | 0.00 | 81 | 1007.9 |
| 20260506023002 | 59 | 161 | 1.7 | 4.3 | 0.00 | 0.00 | 0.00 | 81 | 1007.9 |
| 20260506021502 | 60 | 161 | 1.7 | 13.9 | 0.00 | 0.00 | 0.00 | 79 | 1007.9 |
| 20260506020100 | 60 | 184 | 1.7 | 9.6 | 0.00 | 0.00 | 0.00 | 77 | 1007.8 |
| 20260506014600 | 60 | 165 | 2.6 | 6.1 | 0.00 | 0.00 | 0.00 | 77 | 1007.7 |
| 20260506013059 | 60 | 138 | 1.7 | 7.0 | 0.00 | 0.00 | 0.00 | 76 | 1007.6 |
| 20260506011558 | 61 | 180 | 4.3 | 8.7 | 0.00 | 0.00 | 0.00 | 76 | 1007.3 |
| 20260506010057 | 61 | 140 | 2.6 | 13.0 | 0.00 | 0.00 | 0.00 | 74 | 1007.2 |
| 20260506004558 | 61 | 202 | 2.6 | 7.8 | 0.00 | 0.00 | 0.00 | 74 | 1007.1 |
| 20260506003056 | 62 | 164 | 3.5 | 7.8 | 0.00 | 0.00 | 0.00 | 73 | 1006.9 |
| 20260506001616 | 62 | 214 | 2.6 | 9.6 | 0.00 | 0.00 | 0.00 | 73 | 1006.8 |
| 20260506000054 | 62 | 200 | 2.6 | 9.6 | 0.00 | 0.00 | 0.00 | 73 | 1006.7 |
| 20260505234554 | 62 | 176 | 2.6 | 10.4 | 0.00 | 0.00 | 0.00 | 72 | 1006.4 |
| 20260505233057 | 62 | 146 | 2.6 | 9.6 | 0.00 | 0.00 | 0.00 | 71 | 1006.0 |
| 20260505231556 | 62 | 57 | 4.3 | 11.3 | 0.00 | 0.00 | 0.00 | 71 | 1005.9 |
| 20260505224551 | 63 | 169 | 3.5 | 7.8 | 0.00 | 0.00 | 0.00 | 69 | 1005.8 |
| 20260505223057 | 63 | 134 | 3.5 | 8.7 | 0.00 | 0.00 | 0.00 | 68 | 1005.6 |
| 20260505221553 | 64 | 207 | 6.1 | 18.2 | 0.00 | 0.00 | 0.00 | 66 | 1005.6 |
| 20260505220050 | 65 | 162 | 3.5 | 15.6 | 0.00 | 0.00 | 0.00 | 65 | 1005.6 |
| 20260505214600 | 66 | 254 | 2.6 | 9.6 | 0.00 | 0.00 | 0.00 | 65 | 1005.5 |
| 20260505213056 | 66 | 171 | 2.6 | 9.6 | 0.00 | 0.00 | 0.00 | 65 | 1005.4 |
| 20260505211547 | 66 | 219 | 3.5 | 8.7 | 0.00 | 0.00 | 0.00 | 64 | 1005.1 |
| 20260505210051 | 67 | 171 | 3.5 | 7.8 | 0.00 | 0.00 | 0.00 | 63 | 1005.3 |
| 20260505204545 | 67 | 140 | 1.7 | 5.2 | 0.00 | 0.00 | 0.00 | 63 | 1005.2 |
| 20260505203048 | 67 | 183 | 2.6 | 7.0 | 0.00 | 0.00 | 0.00 | 63 | 1005.2 |
| 20260505201551 | 69 | 190 | 2.6 | 7.8 | 0.00 | 0.00 | 0.00 | 61 | 1005.3 |
| 20260505200042 | 70 | 155 | 2.6 | 7.8 | 0.00 | 0.00 | 0.00 | 59 | 1005.5 |
| 20260505194541 | 70 | 196 | 2.6 | 7.8 | 0.00 | 0.00 | 0.00 | 59 | 1005.7 |
| 20260505193045 | 70 | 188 | 2.6 | 8.7 | 0.00 | 0.00 | 0.00 | 59 | 1005.9 |
| 20260505191545 | 70 | 166 | 2.6 | 7.8 | 0.00 | 0.00 | 0.00 | 59 | 1006.3 |
| 20260505190037 | 70 | 219 | 1.7 | 6.1 | 0.00 | 0.00 | 0.00 | 60 | 1006.5 |
| 20260505184532 | 70 | 143 | 2.6 | 7.8 | 0.00 | 0.00 | 0.00 | 60 | 1006.6 |
| 20260505183045 | 70 | 151 | 2.6 | 6.1 | 0.00 | 0.00 | 0.00 | 60 | 1006.8 |
| 20260505181530 | 70 | 212 | 2.6 | 7.0 | 0.00 | 0.00 | 0.00 | 61 | 1006.9 |
| 20260505180035 | 70 | 149 | 2.6 | 7.0 | 0.00 | 0.00 | 0.00 | 60 | 1007.0 |
| 20260505174536 | 71 | 196 | 3.5 | 8.7 | 0.00 | 0.00 | 0.00 | 59 | 1007.1 |
| 20260505173036 | 70 | 180 | 1.7 | 7.0 | 0.00 | 0.00 | 0.00 | 61 | 1007.1 |
| 20260505171530 | 70 | 185 | 2.6 | 6.1 | 0.00 | 0.00 | 0.00 | 62 | 1007.2 |
| 20260505170026 | 71 | 143 | 3.5 | 7.0 | 0.00 | 0.00 | 0.00 | 59 | 1007.3 |
| 20260505164533 | 73 | 40 | 1.7 | 7.0 | 0.00 | 0.00 | 0.00 | 57 | 1007.3 |
| 20260505163024 | 72 | 233 | 1.7 | 5.2 | 0.00 | 0.00 | 0.00 | 59 | 1007.5 |
| 20260505161521 | 72 | 187 | 1.7 | 4.3 | 0.00 | 0.00 | 0.00 | 57 | 1007.7 |
| 20260505153020 | 71 | 195 | 1.7 | 4.3 | 0.00 | 0.00 | 0.00 | 60 | 1007.9 |
| 20260505151509 | 71 | 163 | 1.7 | 4.3 | 0.00 | 0.00 | 0.00 | 60 | 1008.2 |
| 20260505140104 | 68 | 146 | 1.7 | 4.3 | 0.00 | 0.00 | 0.00 | 64 | 1008.1 |
| 20260505124530 | 61 | 154 | 0.9 | 3.5 | 0.00 | 0.00 | 0.00 | 80 | 1007.9 |
| 20260505123039 | 59 | 107 | 0.9 | 2.6 | 0.00 | 0.00 | 0.00 | 84 | 1007.9 |
| 20260505121524 | 58 | 107 | 0.0 | 1.7 | 0.00 | 0.00 | 0.00 | 86 | 1007.8 |
| 20260505120015 | 56 | 152 | 0.9 | 1.7 | 0.00 | 0.00 | 0.00 | 89 | 1008.0 |
| 20260505114513 | 55 | 152 | 0.0 | 1.7 | 0.00 | 0.00 | 0.00 | 90 | 1007.9 |
| 20260505113010 | 55 | 152 | 0.0 | 1.7 | 0.00 | 0.00 | 0.00 | 91 | 1008.1 |
| 20260505111515 | 53 | 152 | 0.0 | 2.6 | 0.00 | 0.00 | 0.00 | 91 | 1008.1 |
| 20260505101556 | 51 | 130 | 0.0 | 1.7 | 0.00 | 0.00 | 0.00 | 91 | 1007.2 |
| 20260505100101 | 51 | 195 | 0.0 | 1.7 | 0.00 | 0.00 | 0.00 | 91 | 1007.1 |
| 20260505094552 | 51 | 195 | 0.0 | 0.9 | 0.00 | 0.00 | 0.00 | 91 | 1007.0 |
| 20260505093050 | 51 | 148 | 0.0 | 0.9 | 0.00 | 0.00 | 0.00 | 90 | 1007.0 |
| 20260505091550 | 51 | 241 | 0.0 | 0.9 | 0.00 | 0.00 | 0.00 | 90 | 1007.1 |
| 20260505090058 | 51 | 241 | 0.0 | 2.6 | 0.00 | 0.00 | 0.00 | 91 | 1007.0 |
| 20260505084547 | 52 | 134 | 0.0 | 1.7 | 0.00 | 0.00 | 0.00 | 91 | 1007.0 |
| 20260505083046 | 52 | 134 | 0.9 | 2.6 | 0.00 | 0.00 | 0.00 | 90 | 1007.1 |
| 20260505081548 | 51 | 154 | 0.0 | 1.7 | 0.00 | 0.00 | 0.00 | 90 | 1007.1 |
| 20260505080052 | 52 | 154 | 0.0 | 0.9 | 0.00 | 0.00 | 0.00 | 90 | 1007.1 |
| 20260505074543 | 52 | 124 | 0.9 | 2.6 | 0.00 | 0.00 | 0.00 | 90 | 1007.0 |
| 20260505073054 | 52 | 129 | 0.9 | 2.6 | 0.00 | 0.00 | 0.00 | 90 | 1007.1 |
| 20260505071542 | 52 | 256 | 0.9 | 2.6 | 0.00 | 0.00 | 0.00 | 90 | 1007.0 |
| 20260505070050 | 52 | 193 | 0.0 | 3.5 | 0.00 | 0.00 | 0.00 | 89 | 1007.1 |
| 20260505064538 | 52 | 117 | 0.9 | 2.6 | 0.00 | 0.00 | 0.00 | 89 | 1007.2 |
| 20260505063037 | 52 | 256 | 0.0 | 3.5 | 0.00 | 0.00 | 0.00 | 89 | 1007.2 |
| 20260505061536 | 52 | 73 | 0.9 | 2.6 | 0.00 | 0.00 | 0.00 | 89 | 1007.3 |
| 20260505060035 | 53 | 316 | 0.0 | 1.7 | 0.00 | 0.00 | 0.00 | 88 | 1007.4 |
| 20260505054534 | 53 | 159 | 0.9 | 2.6 | 0.00 | 0.00 | 0.00 | 88 | 1007.5 |
| 20260505053031 | 53 | 186 | 0.9 | 3.5 | 0.00 | 0.00 | 0.00 | 88 | 1007.6 |
| 20260505051535 | 53 | 222 | 0.9 | 2.6 | 0.00 | 0.00 | 0.00 | 87 | 1007.6 |
| 20260505041540 | 53 | 138 | 0.0 | 1.7 | 0.00 | 0.00 | 0.00 | 85 | 1007.9 |
| 20260505040022 | 54 | 82 | 0.9 | 4.3 | 0.00 | 0.00 | 0.00 | 84 | 1008.0 |
| 20260505034521 | 54 | 254 | 0.0 | 1.7 | 0.00 | 0.00 | 0.00 | 82 | 1007.9 |
| 20260505033020 | 54 | 254 | 0.0 | 3.5 | 0.00 | 0.00 | 0.00 | 82 | 1007.9 |
| 20260505031519 | 54 | 22 | 0.0 | 4.3 | 0.00 | 0.00 | 0.00 | 82 | 1007.9 |
| 20260505030020 | 54 | 175 | 0.0 | 7.8 | 0.00 | 0.00 | 0.00 | 82 | 1008.0 |